Weather in Pon'goma

Russia / Republic of Karelia     65°20′42″N   34°24′32″E
temp.,
°C
wind,
m/s
gust,
m/s
humid.,
%
clouds,
%
prec.,
mm/h
press.,
hPa
HPBL,
m
13 august, sat
sat1300:00+12w610695 0.0 1017150
03:00+11wnw611761 0.0 1018204
06:00+11wnw58754 0.0 1019181
09:00+14wnw46595 0.0 1020389
12:00+16nw46496 0.0 1021846
15:00+17nw344749 0.0 1021923
18:00+16nne13525 0.0 1021778
21:00+13sse567113 0.0 102163
14 august, sun
sun1400:00+12s5873100 0.0 1021110
03:00+13sw5871100 0.1 1021155
06:00+13ssw4681100 0.3 1020115
09:00+14ssw597484 0.3 1020212
12:00+15ssw697295 0.2 1018200
15:00+20w685448 0.2 1017789
18:00+20wnw475446 0.0 1017929
21:00+17wnw33668 0.0 101815
15 august, mon
mon1500:00+14wnw4573100 0.0 101938
03:00+13nw338091 0.0 102023
06:00+14n2281100 0.0 102129
09:00+14e227999 0.0 1022114
12:00+15ese337614 0.0 1023263
15:00+14e458032 0.1 1022135
18:00+15ese448013 0.0 1022143
21:00+13ese4583100 0.0 102256
16 august, tue
tue1600:00+14sse4482100 0.0 102138
03:00+15ssw447498 0.0 102119
06:00+15sw3374100 0.0 102124
09:00+18ssw446395 0.0 1020129
12:00+20sse456039 0.0 1020464
15:00+21sse565675 0.0 1019789
18:00+23sw5759100 0.0 1018177
21:00+18sse567538 0.0 101845
17 august, wed
wed1700:00+18ssw44815 1.0 101732
03:00+17sw56859 1.1 101757
06:00+17sw56870 0.1 101769
09:00+20sw57735 0.1 1016198
12:00+24ssw5656100 0.0 1016495
15:00+24ssw6852100 0.0 1015936
18:00+24ssw455799 0.0 1015164
21:00+22s44635 0.0 101521